Location: Avully
(45.9633°N, 6.0228°E)
Time: 21:25:51
(UTC+00:00)

ALOS - Pass Details

Date: 23 May 2024
Orbit: 673 x 676 km, 98.0° (Epoch: 14 June)

Event Time Altitude Azimuth Distance (km) Brightness Sun altitude
Rises 01:22:23 0° 27° (NNE) 3,036 7.3 -18.9°
Reaches altitude 10° 01:25:09 10° 43° (NE) 2,116 5.9 -18.7°
Maximum altitude 01:28:37 21° 92° (E) 1,511 4.3 -18.4°
Drops below altitude 10° 01:32:05 10° 141° (SE) 2,101 4.6 -18.1°
Enters shadow 01:32:33 - 145° (SE) 2,243 4.7 -18.1°
